Overview Statistics Trail Chart Weather Telemetry Raw packets
 

This is the latest recevied weather packets stored in our database for station/object KA6UPU-1. If no packets are shown the sender has not sent any weather packets the latest 10 day(s).

<< 35 36 37 38 39 40 41 >>
Time Temp. Humidity Pressure Rain* Wind** Luminosity Snow
1788385157 23.89° C 58% 1016.2 hPa 0 mm - - -
1788384557 23.89° C 58% 1016.4 hPa 0 mm - - -
1788383957 23.89° C 58% 1016.5 hPa 0 mm - - -
1788383657 23.89° C 56% 1016.5 hPa 0 mm - - -
1788383357 24.44° C 58% 1016.6 hPa 0 mm - - -
1788383057 24.44° C 59% 1016.7 hPa 0 mm - - -
1788382757 23.89° C 59% 1016.5 hPa 0 mm - - -
1788382157 23.89° C 60% 1016.5 hPa 0 mm - - -
1788381690 23.89° C 60% 1016.5 hPa 0 mm - - -
1788381390 23.89° C 60% 1016.6 hPa 0 mm - - -
1788380798 23.89° C 62% 1016.6 hPa 0 mm - - -
1788380490 22.78° C 63% 1016.7 hPa 0 mm - - -
1788379890 22.22° C 64% 1016.8 hPa 0 mm - - -
1788379590 22.22° C 65% 1017 hPa 0 mm - - -
1788379290 22.22° C 66% 1017 hPa 0 mm - - -
1788378990 22.22° C 65% 1017 hPa 0 mm - - -
1788378690 22.22° C 63% 1017.1 hPa 0 mm - - -
1788378256 22.22° C 64% 1017.1 hPa 0 mm - - -
1788377955 22.78° C 63% 1017.2 hPa 0 mm - - -
1788377356 22.78° C 63% 1017.1 hPa 0 mm - - -
1788377293 22.78° C 64% 1017.1 hPa 0 mm - - -
1788377055 22.78° C 64% 1017.1 hPa 0 mm - - -
1788376756 22.78° C 60% 1017.1 hPa 0 mm - - -
1788376155 23.33° C 58% 1017.2 hPa 0 mm - - -
1788375629 22.78° C 61% 1017.1 hPa 0 mm - - -

* Rain latest hour (hover to see other rain measurements)
** Current wind speed in m/s (hover to see current wind gust speed)